Time,TemperatureF,DewpointF,PressureIn,WindDirection,WindDirectionDegrees,WindSpeedMPH,WindSpeedGustMPH,Humidity,HourlyPrecipIn,Conditions,Clouds,dailyrainin,SoftwareType,DateUTC
2013-04-12 00:04:00,37.0,31.4,29.62,SSW,210,4.6,7.6,80,0.00,,,0.00,WSDL version 423,2013-04-12 05:04:00,
2013-04-12 00:09:00,36.9,31.2,29.62,SW,218,3.5,8.7,80,0.00,,,0.00,WSDL version 423,2013-04-12 05:09:00,
2013-04-12 00:14:00,36.9,31.3,29.62,SSW,197,3.8,8.7,80,0.00,,,0.00,WSDL version 423,2013-04-12 05:14:00,
2013-04-12 00:19:00,36.9,31.2,29.62,SSW,200,4.9,8.1,79,0.00,,,0.00,WSDL version 423,2013-04-12 05:19:00,
2013-04-12 00:24:00,36.9,31.2,29.62,SSW,205,4.3,8.1,79,0.00,,,0.00,WSDL version 423,2013-04-12 05:24:00,
2013-04-12 00:29:00,36.9,31.3,29.62,West,259,4.8,7.8,80,0.00,,,0.00,WSDL version 423,2013-04-12 05:29:00,
2013-04-12 00:34:00,36.9,31.2,29.62,WSW,238,5.0,7.8,80,0.00,,,0.00,WSDL version 423,2013-04-12 05:34:00,
2013-04-12 00:39:00,36.9,31.3,29.62,SSW,210,5.7,12.1,80,0.00,,,0.00,WSDL version 423,2013-04-12 05:39:00,
2013-04-12 00:44:00,36.9,31.3,29.62,SSW,206,4.3,12.1,80,0.00,,,0.00,WSDL version 423,2013-04-12 05:44:00,
2013-04-12 00:49:00,36.9,31.5,29.62,SW,214,4.1,9.4,81,0.00,,,0.00,WSDL version 423,2013-04-12 05:49:00,
2013-04-12 00:54:00,36.9,31.5,29.62,SSW,206,6.2,8.7,80,0.00,,,0.00,WSDL version 423,2013-04-12 05:54:00,
2013-04-12 00:59:00,36.9,31.5,29.62,SW,219,5.1,8.7,81,0.00,,,0.00,WSDL version 423,2013-04-12 05:59:00,
2013-04-12 01:04:00,36.9,31.6,29.62,SW,222,3.7,8.5,81,0.00,,,0.00,WSDL version 423,2013-04-12 06:04:00,
2013-04-12 01:09:00,36.9,31.6,29.62,SSW,205,3.3,8.5,81,0.00,,,0.00,WSDL version 423,2013-04-12 06:09:00,
2013-04-12 01:14:00,36.8,31.5,29.62,SSW,209,4.4,6.3,81,0.00,,,0.00,WSDL version 423,2013-04-12 06:14:00,
2013-04-12 01:19:00,36.7,31.4,29.62,SSW,210,5.1,7.4,81,0.00,,,0.00,WSDL version 423,2013-04-12 06:19:00,
2013-04-12 01:24:00,36.7,31.4,29.62,SSW,211,5.8,7.8,81,0.00,,,0.00,WSDL version 423,2013-04-12 06:24:00,
2013-04-12 01:29:00,36.7,31.1,29.62,SSW,203,4.3,7.8,80,0.00,,,0.00,WSDL version 423,2013-04-12 06:29:00,
2013-04-12 01:34:00,36.7,31.1,29.62,SW,233,5.2,6.3,80,0.00,,,0.00,WSDL version 423,2013-04-12 06:34:00,
2013-04-12 01:39:00,36.7,31.1,29.62,SW,221,4.4,6.5,80,0.00,,,0.00,WSDL version 423,2013-04-12 06:39:00,
2013-04-12 01:44:00,36.7,31.1,29.62,SSW,203,5.1,7.8,80,0.00,,,0.00,WSDL version 423,2013-04-12 06:44:00,
2013-04-12 01:49:00,36.7,31.2,29.62,South,185,4.3,8.7,81,0.00,,,0.00,WSDL version 423,2013-04-12 06:49:00,
2013-04-12 01:54:00,36.5,31.3,29.62,South,169,4.6,8.7,81,0.00,,,0.00,WSDL version 423,2013-04-12 06:54:00,
2013-04-12 01:59:00,36.5,31.2,29.59,SSW,210,4.0,7.2,81,0.00,,,0.00,WSDL version 423,2013-04-12 06:59:00,
2013-04-12 02:04:00,36.5,31.2,29.59,SSE,152,3.9,9.8,81,0.00,,,0.00,WSDL version 423,2013-04-12 07:04:00,
2013-04-12 02:09:00,36.5,31.2,29.59,SSW,200,3.7,9.8,81,0.00,,,0.00,WSDL version 423,2013-04-12 07:09:00,
2013-04-12 02:14:00,36.5,31.2,29.59,SSW,208,4.3,6.9,81,0.00,,,0.00,WSDL version 423,2013-04-12 07:14:00,
2013-04-12 02:19:00,36.5,31.2,29.59,SSW,203,4.5,7.6,81,0.00,,,0.00,WSDL version 423,2013-04-12 07:19:00,
2013-04-12 02:24:00,36.5,31.2,29.59,SSW,203,3.9,7.6,81,0.00,,,0.00,WSDL version 423,2013-04-12 07:24:00,
2013-04-12 02:29:00,36.5,31.5,29.59,SW,215,4.3,6.0,82,0.00,,,0.00,WSDL version 423,2013-04-12 07:29:00,
2013-04-12 02:34:00,36.5,31.5,29.59,SSW,206,3.8,5.8,82,0.00,,,0.00,WSDL version 423,2013-04-12 07:34:00,
2013-04-12 02:39:00,36.5,31.5,29.59,SW,215,4.2,7.4,82,0.00,,,0.00,WSDL version 423,2013-04-12 07:39:00,
2013-04-12 02:44:00,36.5,31.5,29.59,SSW,211,4.9,7.6,82,0.00,,,0.00,WSDL version 423,2013-04-12 07:44:00,
2013-04-12 02:49:00,36.5,31.5,29.59,WSW,240,5.1,7.6,82,0.00,,,0.00,WSDL version 423,2013-04-12 07:49:00,
2013-04-12 02:54:00,36.5,31.5,29.59,SW,231,5.3,8.5,82,0.00,,,0.00,WSDL version 423,2013-04-12 07:54:00,
2013-04-12 02:59:00,36.5,31.5,29.59,SSW,208,5.9,8.5,82,0.00,,,0.00,WSDL version 423,2013-04-12 07:59:00,
2013-04-12 03:04:00,36.5,31.5,29.59,SSW,200,5.3,8.5,82,0.00,,,0.00,WSDL version 423,2013-04-12 08:04:00,
2013-04-12 03:09:00,36.5,31.7,29.59,SW,222,5.5,10.3,83,0.00,,,0.00,WSDL version 423,2013-04-12 08:09:00,
2013-04-12 03:14:00,36.5,31.5,29.59,SSW,206,4.9,10.3,82,0.00,,,0.00,WSDL version 423,2013-04-12 08:14:00,
2013-04-12 03:19:00,36.5,31.6,29.59,SSW,205,4.2,7.8,83,0.00,,,0.00,WSDL version 423,2013-04-12 08:19:00,
2013-04-12 03:24:00,36.5,31.7,29.59,SSW,208,6.2,10.1,82,0.00,,,0.00,WSDL version 423,2013-04-12 08:24:00,
2013-04-12 03:29:00,36.5,31.5,29.59,SSW,206,5.0,10.1,82,0.00,,,0.00,WSDL version 423,2013-04-12 08:29:00,
2013-04-12 03:34:00,36.5,31.7,29.59,SW,221,4.8,9.6,83,0.00,,,0.00,WSDL version 423,2013-04-12 08:34:00,
2013-04-12 03:40:00,36.5,31.8,29.59,SSW,210,5.1,7.6,83,0.00,,,0.00,WSDL version 423,2013-04-12 08:40:00,
2013-04-12 03:45:00,36.5,31.8,29.59,South,186,5.9,7.6,83,0.00,,,0.00,WSDL version 423,2013-04-12 08:45:00,
2013-04-12 03:50:00,36.5,31.9,29.59,SSW,196,4.9,7.6,84,0.00,,,0.00,WSDL version 423,2013-04-12 08:50:00,
2013-04-12 03:55:00,36.5,32.1,29.59,SSW,203,6.0,8.1,84,0.00,,,0.00,WSDL version 423,2013-04-12 08:55:00,
2013-04-12 04:00:00,36.5,32.1,29.59,SSW,199,5.6,8.1,84,0.00,,,0.00,WSDL version 423,2013-04-12 09:00:00,
2013-04-12 04:05:00,36.5,32.1,29.59,SSW,199,4.3,7.8,84,0.00,,,0.00,WSDL version 423,2013-04-12 09:05:00,
2013-04-12 04:10:00,36.5,32.2,29.59,SSW,199,4.5,6.5,85,0.00,,,0.00,WSDL version 423,2013-04-12 09:10:00,
2013-04-12 04:15:00,36.5,32.4,29.59,SSW,197,5.5,9.8,85,0.00,,,0.00,WSDL version 423,2013-04-12 09:15:00,
2013-04-12 04:20:00,36.5,32.4,29.59,SSW,199,5.1,9.8,85,0.00,,,0.00,WSDL version 423,2013-04-12 09:20:00,
2013-04-12 04:25:00,36.5,32.4,29.59,SW,222,5.9,8.5,85,0.00,,,0.00,WSDL version 423,2013-04-12 09:25:00,
2013-04-12 04:30:00,36.5,32.4,29.59,SW,231,5.1,8.5,85,0.00,,,0.00,WSDL version 423,2013-04-12 09:30:00,
2013-04-12 04:35:00,36.5,32.4,29.59,SSW,193,6.2,8.5,85,0.00,,,0.00,WSDL version 423,2013-04-12 09:35:00,
2013-04-12 04:40:00,36.5,32.6,29.59,SW,214,5.5,8.5,86,0.00,,,0.00,WSDL version 423,2013-04-12 09:40:00,
2013-04-12 04:45:00,36.5,32.7,29.59,SSW,210,5.0,7.4,86,0.00,,,0.00,WSDL version 423,2013-04-12 09:45:00,
2013-04-12 04:50:00,36.5,32.7,29.59,SSW,212,5.2,7.6,86,0.00,,,0.00,WSDL version 423,2013-04-12 09:50:00,
2013-04-12 04:55:00,36.5,32.7,29.59,SSW,208,6.2,8.1,86,0.00,,,0.00,WSDL version 423,2013-04-12 09:55:00,
2013-04-12 05:00:00,36.5,32.7,29.59,SSW,205,6.1,8.1,86,0.00,,,0.00,WSDL version 423,2013-04-12 10:00:00,
2013-04-12 05:05:00,36.5,32.8,29.59,SW,225,5.8,10.3,87,0.00,,,0.00,WSDL version 423,2013-04-12 10:05:00,
2013-04-12 05:10:00,36.5,33.0,29.59,SW,218,6.0,10.3,87,0.00,,,0.00,WSDL version 423,2013-04-12 10:10:00,
2013-04-12 05:15:00,36.5,33.0,29.59,SW,219,4.9,8.7,87,0.00,,,0.00,WSDL version 423,2013-04-12 10:15:00,
2013-04-12 05:20:00,36.5,33.0,29.59,SW,218,5.2,8.1,87,0.00,,,0.00,WSDL version 423,2013-04-12 10:20:00,
2013-04-12 05:25:00,36.5,33.0,29.59,SSW,195,5.2,8.1,87,0.00,,,0.00,WSDL version 423,2013-04-12 10:25:00,
2013-04-12 05:30:00,36.6,33.4,29.59,SSW,210,4.9,7.8,88,0.00,,,0.00,WSDL version 423,2013-04-12 10:30:00,
2013-04-12 05:35:00,36.7,33.5,29.59,WSW,243,5.1,6.3,88,0.00,,,0.00,WSDL version 423,2013-04-12 10:35:00,
2013-04-12 05:40:00,36.7,33.5,29.59,South,190,4.6,6.5,88,0.00,,,0.00,WSDL version 423,2013-04-12 10:40:00,
2013-04-12 05:45:00,36.7,33.5,29.59,SW,231,5.7,9.6,88,0.00,,,0.00,WSDL version 423,2013-04-12 10:45:00,
2013-04-12 05:50:00,36.7,33.5,29.59,South,184,4.8,9.6,88,0.00,,,0.00,WSDL version 423,2013-04-12 10:50:00,
2013-04-12 05:55:00,36.7,33.5,29.59,SW,215,5.7,8.7,88,0.00,,,0.00,WSDL version 423,2013-04-12 10:55:00,
2013-04-12 06:00:00,36.7,33.5,29.59,SSW,205,5.0,8.7,88,0.00,,,0.00,WSDL version 423,2013-04-12 11:00:00,
2013-04-12 06:05:00,36.7,33.7,29.59,SSW,212,4.6,8.1,89,0.00,,,0.00,WSDL version 423,2013-04-12 11:05:00,
2013-04-12 06:10:00,36.7,33.7,29.59,WSW,241,4.5,8.1,89,0.00,,,0.00,WSDL version 423,2013-04-12 11:10:00,
2013-04-12 06:15:00,36.7,33.7,29.59,SSW,209,5.5,7.8,89,0.00,,,0.00,WSDL version 423,2013-04-12 11:15:00,
2013-04-12 06:20:00,36.7,33.7,29.59,SSW,203,5.2,7.8,89,0.00,,,0.00,WSDL version 423,2013-04-12 11:20:00,
2013-04-12 06:25:00,36.6,33.9,29.59,SSW,209,6.4,8.5,90,0.00,,,0.00,WSDL version 423,2013-04-12 11:25:00,
2013-04-12 06:30:00,36.5,34.1,29.59,SW,219,5.3,8.5,91,0.00,,,0.00,WSDL version 423,2013-04-12 11:30:00,
2013-04-12 06:35:00,36.5,34.1,29.59,SW,231,4.6,8.1,91,0.00,,,0.00,WSDL version 423,2013-04-12 11:35:00,
2013-04-12 06:40:00,36.5,34.4,29.59,SSW,210,4.7,7.4,92,0.00,,,0.00,WSDL version 423,2013-04-12 11:40:00,
2013-04-12 06:45:00,36.6,34.6,29.59,SW,225,6.0,8.7,93,0.00,,,0.00,WSDL version 423,2013-04-12 11:45:00,
2013-04-12 06:50:00,36.7,34.9,29.59,SW,221,5.7,8.7,93,0.00,,,0.00,WSDL version 423,2013-04-12 11:50:00,
2013-04-12 06:56:00,36.7,34.9,29.59,SSW,210,5.9,9.8,93,0.00,,,0.00,WSDL version 423,2013-04-12 11:56:00,
2013-04-12 07:02:00,36.8,35.0,29.59,SW,219,6.5,9.8,94,0.00,,,0.00,WSDL version 423,2013-04-12 12:02:00,
2013-04-12 07:07:00,36.7,35.0,29.59,SSW,212,5.5,8.7,94,0.00,,,0.00,WSDL version 423,2013-04-12 12:07:00,
2013-04-12 07:13:00,36.7,35.1,29.59,SSW,203,5.2,8.1,94,0.00,,,0.00,WSDL version 423,2013-04-12 12:13:00,
2013-04-12 07:19:00,36.7,35.4,29.59,SSW,209,6.1,8.1,96,0.00,,,0.00,WSDL version 423,2013-04-12 12:19:00,
2013-04-12 07:24:00,36.7,35.6,29.59,SW,221,4.7,9.8,96,0.00,,,0.00,WSDL version 423,2013-04-12 12:24:00,
2013-04-12 07:30:00,36.7,36.0,29.59,SSW,212,6.1,9.8,98,0.00,,,0.00,WSDL version 423,2013-04-12 12:30:00,
2013-04-12 07:35:00,36.7,36.2,29.59,SW,214,6.9,11.0,98,0.00,,,0.00,WSDL version 423,2013-04-12 12:35:00,
2013-04-12 07:40:00,36.7,36.3,29.59,SW,218,5.6,11.0,99,0.00,,,0.00,WSDL version 423,2013-04-12 12:40:00,
2013-04-12 07:45:00,36.9,36.6,29.62,SW,214,5.8,11.0,99,0.00,,,0.00,WSDL version 423,2013-04-12 12:45:00,
2013-04-12 07:50:00,36.9,36.6,29.62,WSW,239,4.6,11.0,99,0.00,,,0.00,WSDL version 423,2013-04-12 12:50:00,
2013-04-12 07:55:00,37.0,37.0,29.62,SSW,212,6.1,8.7,100,0.00,,,0.00,WSDL version 423,2013-04-12 12:55:00,
2013-04-12 08:00:00,37.0,37.0,29.62,SSW,210,4.9,8.5,100,0.00,,,0.00,WSDL version 423,2013-04-12 13:00:00,
2013-04-12 08:05:00,37.1,37.1,29.62,SSW,209,5.8,8.7,100,0.00,,,0.00,WSDL version 423,2013-04-12 13:05:00,
2013-04-12 08:10:00,37.3,37.1,29.62,SSW,209,5.1,8.7,99,0.00,,,0.00,WSDL version 423,2013-04-12 13:10:00,
2013-04-12 08:15:00,37.4,37.0,29.62,SSW,208,5.5,10.5,98,0.00,,,0.00,WSDL version 423,2013-04-12 13:15:00,
2013-04-12 08:20:00,37.5,37.0,29.62,SSW,210,5.1,10.5,98,0.00,,,0.00,WSDL version 423,2013-04-12 13:20:00,
2013-04-12 08:25:00,37.6,36.9,29.62,SSW,203,6.0,8.7,97,0.00,,,0.00,WSDL version 423,2013-04-12 13:25:00,
2013-04-12 08:30:00,37.8,36.9,29.62,SSW,210,5.7,8.1,96,0.00,,,0.00,WSDL version 423,2013-04-12 13:30:00,
2013-04-12 08:35:00,37.9,36.8,29.62,SSW,212,6.2,12.3,95,0.00,,,0.00,WSDL version 423,2013-04-12 13:35:00,
2013-04-12 08:40:00,38.0,36.6,29.62,SSW,206,5.8,12.3,94,0.00,,,0.00,WSDL version 423,2013-04-12 13:40:00,
2013-04-12 08:45:00,38.1,36.4,29.62,SSW,208,7.9,10.5,93,0.00,,,0.00,WSDL version 423,2013-04-12 13:45:00,
2013-04-12 08:50:00,38.1,36.2,29.62,SW,235,6.4,10.3,92,0.00,,,0.00,WSDL version 423,2013-04-12 13:50:00,
2013-04-12 08:55:00,38.2,36.1,29.62,SW,218,6.3,9.6,92,0.00,,,0.00,WSDL version 423,2013-04-12 13:55:00,
2013-04-12 09:00:00,38.3,36.0,29.62,SW,225,6.3,10.5,91,0.00,,,0.00,WSDL version 423,2013-04-12 14:00:00,
2013-04-12 09:05:00,38.4,36.0,29.62,SSW,196,6.8,10.5,91,0.00,,,0.00,WSDL version 423,2013-04-12 14:05:00,
2013-04-12 09:10:00,38.6,36.2,29.62,SSW,199,6.8,10.5,91,0.00,,,0.00,WSDL version 423,2013-04-12 14:10:00,
2013-04-12 09:15:00,38.8,36.4,29.62,SSW,198,6.7,10.1,90,0.00,,,0.00,WSDL version 423,2013-04-12 14:15:00,
2013-04-12 09:20:00,38.8,36.2,29.62,SW,219,6.7,10.1,90,0.00,,,0.00,WSDL version 423,2013-04-12 14:20:00,
2013-04-12 09:25:00,38.9,36.0,29.62,SSW,206,6.6,11.9,89,0.00,,,0.00,WSDL version 423,2013-04-12 14:25:00,
2013-04-12 09:30:00,39.1,36.2,29.62,SSW,209,4.6,11.9,89,0.00,,,0.00,WSDL version 423,2013-04-12 14:30:00,
2013-04-12 09:35:00,39.3,36.4,29.62,SSW,206,6.3,10.1,89,0.00,,,0.00,WSDL version 423,2013-04-12 14:35:00,
2013-04-12 09:40:00,39.4,36.3,29.62,SSW,205,7.4,12.8,88,0.00,,,0.00,WSDL version 423,2013-04-12 14:40:00,
2013-04-12 09:45:00,39.1,35.4,29.62,SSW,195,8.1,14.8,87,0.00,,,0.00,WSDL version 423,2013-04-12 14:45:00,
2013-04-12 09:50:00,38.8,35.1,29.62,SSW,195,7.7,14.8,87,0.00,,,0.00,WSDL version 423,2013-04-12 14:50:00,
2013-04-12 09:55:00,38.9,35.5,29.62,SSW,209,6.1,13.9,89,0.00,,,0.00,WSDL version 423,2013-04-12 14:55:00,
2013-04-12 10:00:00,39.1,36.4,29.62,SW,217,6.1,11.9,90,0.00,,,0.00,WSDL version 423,2013-04-12 15:00:00,
2013-04-12 10:05:00,39.2,36.7,29.62,SSW,196,6.7,11.0,91,0.00,,,0.00,WSDL version 423,2013-04-12 15:05:00,
2013-04-12 10:10:00,39.3,36.9,29.62,SSW,212,5.9,12.5,91,0.00,,,0.00,WSDL version 423,2013-04-12 15:10:00,
2013-04-12 10:15:00,39.2,36.8,29.62,SSW,208,6.4,12.5,92,0.00,,,0.00,WSDL version 423,2013-04-12 15:15:00,
2013-04-12 10:20:00,39.2,37.1,29.62,SW,219,5.8,10.3,93,0.00,,,0.00,WSDL version 423,2013-04-12 15:20:00,
2013-04-12 10:25:00,39.4,37.9,29.62,SW,214,6.0,8.1,95,0.00,,,0.00,WSDL version 423,2013-04-12 15:25:00,
2013-04-12 10:30:00,39.5,38.0,29.65,South,180,6.5,10.3,94,0.00,,,0.00,WSDL version 423,2013-04-12 15:30:00,
2013-04-12 10:35:00,39.5,38.1,29.65,SSW,210,6.2,10.3,95,0.00,,,0.00,WSDL version 423,2013-04-12 15:35:00,
2013-04-12 10:40:00,39.7,38.5,29.65,SSW,195,6.5,8.7,96,0.00,,,0.00,WSDL version 423,2013-04-12 15:40:00,
2013-04-12 10:45:00,39.3,38.1,29.65,SW,218,6.7,12.5,95,0.00,,,0.00,WSDL version 423,2013-04-12 15:45:00,
2013-04-12 10:50:00,38.9,37.6,29.65,SSW,207,5.5,12.5,95,0.00,,,0.00,WSDL version 423,2013-04-12 15:50:00,
2013-04-12 10:55:00,38.8,37.7,29.65,SW,218,5.8,8.7,96,0.00,,,0.00,WSDL version 423,2013-04-12 15:55:00,
2013-04-12 11:00:00,38.9,38.0,29.65,SSW,203,6.3,10.5,97,0.00,,,0.00,WSDL version 423,2013-04-12 16:00:00,
2013-04-12 11:05:00,39.2,38.5,29.65,SSW,194,7.1,14.8,98,0.00,,,0.00,WSDL version 423,2013-04-12 16:05:00,
2013-04-12 11:10:00,39.3,38.8,29.65,SW,236,6.7,14.8,98,0.00,,,0.00,WSDL version 423,2013-04-12 16:10:00,
2013-04-12 11:15:00,39.5,39.0,29.65,SW,221,6.9,10.3,98,0.00,,,0.00,WSDL version 423,2013-04-12 16:15:00,
2013-04-12 11:20:00,40.0,39.8,29.65,SSW,195,6.4,10.3,100,0.00,,,0.00,WSDL version 423,2013-04-12 16:20:00,
2013-04-12 11:25:00,40.3,40.1,29.65,SW,217,8.8,12.3,99,0.00,,,0.00,WSDL version 423,2013-04-12 16:25:00,
2013-04-12 11:30:00,40.3,39.8,29.65,SW,214,6.4,12.3,98,0.00,,,0.00,WSDL version 423,2013-04-12 16:30:00,
2013-04-12 11:35:00,40.2,39.5,29.65,SSW,207,5.5,9.8,97,0.00,,,0.00,WSDL version 423,2013-04-12 16:35:00,
2013-04-12 11:40:00,40.2,39.1,29.65,SSW,205,6.9,9.8,96,0.00,,,0.00,WSDL version 423,2013-04-12 16:40:00,
2013-04-12 11:45:00,40.2,39.0,29.65,SW,236,7.2,10.7,95,0.00,,,0.00,WSDL version 423,2013-04-12 16:45:00,
2013-04-12 11:50:00,40.1,38.5,29.65,WSW,255,8.4,14.5,94,0.00,,,0.00,WSDL version 423,2013-04-12 16:50:00,
2013-04-12 11:55:00,40.1,38.5,29.65,SSW,212,6.8,14.5,94,0.00,,,0.00,WSDL version 423,2013-04-12 16:55:00,
2013-04-12 12:00:00,40.3,38.8,29.68,South,184,5.7,11.2,95,0.00,,,0.00,WSDL version 423,2013-04-12 17:00:00,
2013-04-12 12:05:00,40.5,39.0,29.68,SSW,203,6.2,12.1,94,0.00,,,0.00,WSDL version 423,2013-04-12 17:05:00,
2013-04-12 12:11:00,40.8,39.0,29.68,SW,219,4.7,13.0,93,0.00,,,0.00,WSDL version 423,2013-04-12 17:11:00,
2013-04-12 12:17:00,41.0,38.7,29.68,SW,219,5.2,12.1,91,0.00,,,0.00,WSDL version 423,2013-04-12 17:17:00,
2013-04-12 12:23:00,41.0,38.5,29.68,SW,228,6.6,10.7,90,0.00,,,0.00,WSDL version 423,2013-04-12 17:23:00,
2013-04-12 12:28:00,40.9,38.2,29.68,WNW,297,7.1,13.0,90,0.00,,,0.00,WSDL version 423,2013-04-12 17:28:00,
2013-04-12 12:34:00,40.6,37.7,29.68,SW,225,6.6,13.0,89,0.00,,,0.00,WSDL version 423,2013-04-12 17:34:00,
2013-04-12 12:39:00,40.7,37.9,29.68,SSW,195,6.3,12.1,90,0.00,,,0.00,WSDL version 423,2013-04-12 17:39:00,
2013-04-12 12:46:00,41.0,38.2,29.68,South,185,7.2,12.8,89,0.00,,,0.00,WSDL version 423,2013-04-12 17:46:00,
2013-04-12 12:53:00,41.2,38.2,29.68,SW,231,5.9,10.3,89,0.00,,,0.00,WSDL version 423,2013-04-12 17:53:00,
2013-04-12 12:58:00,41.5,38.3,29.68,SW,228,5.7,8.7,88,0.00,,,0.00,WSDL version 423,2013-04-12 17:58:00,
2013-04-12 13:05:00,41.6,38.2,29.68,SSW,203,9.1,13.0,87,0.00,,,0.00,WSDL version 423,2013-04-12 18:05:00,
2013-04-12 13:10:00,41.5,37.8,29.68,SW,225,10.4,14.5,87,0.00,,,0.00,WSDL version 423,2013-04-12 18:10:00,
2013-04-12 13:15:00,41.7,38.1,29.71,South,183,8.6,14.5,87,0.00,,,0.00,WSDL version 423,2013-04-12 18:15:00,
2013-04-12 13:20:00,42.0,38.3,29.71,SSW,203,7.7,11.9,86,0.00,,,0.00,WSDL version 423,2013-04-12 18:20:00,
2013-04-12 13:27:00,42.1,37.7,29.68,SSW,203,6.0,11.4,84,0.00,,,0.00,WSDL version 423,2013-04-12 18:27:00,
2013-04-12 14:26:00,42.7,35.0,29.71,SW,228,6.2,10.5,74,0.00,,,0.00,WSDL version 423,2013-04-12 19:26:00,
2013-04-12 14:27:00,42.7,35.0,29.71,WSW,256,6.0,10.5,74,0.00,,,0.00,WSDL version 423,2013-04-12 19:27:00,
2013-04-12 14:32:00,42.8,35.0,29.71,West,280,6.5,12.3,74,0.00,,,0.00,WSDL version 423,2013-04-12 19:32:00,
2013-04-12 14:37:00,42.5,34.8,29.71,NNW,338,5.4,12.3,74,0.00,,,0.00,WSDL version 423,2013-04-12 19:37:00,
2013-04-12 14:38:00,42.4,34.8,29.71,SW,218,4.8,12.3,74,0.00,,,0.00,WSDL version 423,2013-04-12 19:38:00,
2013-04-12 14:43:00,42.4,34.6,29.74,South,185,7.0,12.8,73,0.00,,,0.00,WSDL version 423,2013-04-12 19:43:00,
2013-04-12 14:48:00,42.3,34.0,29.74,WSW,255,7.1,12.8,72,0.00,,,0.00,WSDL version 423,2013-04-12 19:48:00,
2013-04-12 14:53:00,42.4,34.0,29.74,SSE,167,6.6,14.1,71,0.00,,,0.00,WSDL version 423,2013-04-12 19:53:00,
2013-04-12 14:58:00,42.4,33.5,29.74,NW,325,6.0,14.1,71,0.00,,,0.00,WSDL version 423,2013-04-12 19:58:00,
2013-04-12 15:03:00,42.4,33.7,29.74,West,280,5.8,9.8,71,0.00,,,0.00,WSDL version 423,2013-04-12 20:03:00,
2013-04-12 15:08:00,42.4,33.5,29.74,NW,312,7.4,12.3,70,0.00,,,0.00,WSDL version 423,2013-04-12 20:08:00,
2013-04-12 15:13:00,42.3,33.6,29.74,WSW,240,6.0,12.3,72,0.00,,,0.00,WSDL version 423,2013-04-12 20:13:00,
2013-04-12 15:18:00,42.3,34.0,29.74,East,81,3.4,8.9,73,0.00,,,0.00,WSDL version 423,2013-04-12 20:18:00,
2013-04-12 15:23:00,42.3,34.2,29.74,SSE,158,4.9,10.1,72,0.00,,,0.00,WSDL version 423,2013-04-12 20:23:00,
2013-04-12 15:28:00,42.0,33.5,29.74,WNW,283,6.8,10.1,71,0.00,,,0.00,WSDL version 423,2013-04-12 20:28:00,
2013-04-12 15:33:00,41.8,33.3,29.74,West,266,5.3,10.3,72,0.00,,,0.00,WSDL version 423,2013-04-12 20:33:00,
2013-04-12 15:38:00,41.7,33.1,29.74,SW,214,8.3,13.0,71,0.00,,,0.00,WSDL version 423,2013-04-12 20:38:00,
2013-04-12 15:43:00,41.6,32.8,29.77,NE,42,4.8,13.0,71,0.00,,,0.00,WSDL version 423,2013-04-12 20:43:00,
2013-04-12 15:48:00,41.8,33.1,29.77,NNW,347,4.5,10.3,72,0.00,,,0.00,WSDL version 423,2013-04-12 20:48:00,
2013-04-12 15:53:00,41.8,32.7,29.77,NW,304,7.1,11.9,69,0.00,,,0.00,WSDL version 423,2013-04-12 20:53:00,
2013-04-12 15:58:00,41.7,32.3,29.77,WNW,298,4.8,11.9,70,0.00,,,0.00,WSDL version 423,2013-04-12 20:58:00,
2013-04-12 16:03:00,41.7,32.8,29.77,WSW,248,6.7,12.5,69,0.00,,,0.00,WSDL version 423,2013-04-12 21:03:00,
2013-04-12 16:08:00,41.7,32.1,29.77,NW,315,6.3,12.5,69,0.00,,,0.00,WSDL version 423,2013-04-12 21:08:00,
2013-04-12 16:13:00,41.8,32.5,29.77,NW,308,5.0,9.6,70,0.00,,,0.00,WSDL version 423,2013-04-12 21:13:00,
2013-04-12 16:18:00,41.8,32.4,29.77,WNW,285,7.0,11.0,69,0.00,,,0.00,WSDL version 423,2013-04-12 21:18:00,
2013-04-12 16:23:00,41.9,32.5,29.77,North,11,5.8,12.5,70,0.00,,,0.00,WSDL version 423,2013-04-12 21:23:00,
2013-04-12 16:28:00,41.9,32.3,29.77,SW,236,7.9,12.5,69,0.00,,,0.00,WSDL version 423,2013-04-12 21:28:00,
2013-04-12 16:33:00,41.9,32.4,29.77,NNE,28,5.4,12.1,69,0.00,,,0.00,WSDL version 423,2013-04-12 21:33:00,
2013-04-12 16:38:00,41.9,32.7,29.77,North,10,5.9,12.5,69,0.00,,,0.00,WSDL version 423,2013-04-12 21:38:00,
2013-04-12 16:43:00,41.8,32.1,29.77,West,278,5.5,12.5,68,0.00,,,0.00,WSDL version 423,2013-04-12 21:43:00,
2013-04-12 16:48:00,41.7,32.1,29.77,WNW,302,6.3,13.2,68,0.00,,,0.00,WSDL version 423,2013-04-12 21:48:00,
2013-04-12 16:53:00,41.7,32.2,29.77,NW,315,5.5,13.2,70,0.00,,,0.00,WSDL version 423,2013-04-12 21:53:00,
2013-04-12 16:58:00,41.6,32.7,29.77,NW,326,4.5,10.7,70,0.00,,,0.00,WSDL version 423,2013-04-12 21:58:00,
2013-04-12 17:03:00,41.6,32.7,29.77,WNW,293,5.8,8.7,70,0.00,,,0.00,WSDL version 423,2013-04-12 22:03:00,
2013-04-12 17:08:00,41.9,32.9,29.77,SSE,154,4.8,8.7,70,0.00,,,0.00,WSDL version 423,2013-04-12 22:08:00,
2013-04-12 17:13:00,42.0,32.4,29.80,East,93,5.6,9.8,69,0.00,,,0.00,WSDL version 423,2013-04-12 22:13:00,
2013-04-12 17:18:00,42.1,32.2,29.80,SW,222,5.2,9.8,67,0.00,,,0.00,WSDL version 423,2013-04-12 22:18:00,
2013-04-12 17:23:00,42.2,32.2,29.80,NNE,13,3.9,13.0,69,0.00,,,0.00,WSDL version 423,2013-04-12 22:23:00,
2013-04-12 17:28:00,42.5,33.0,29.80,NW,311,3.9,13.0,68,0.00,,,0.00,WSDL version 423,2013-04-12 22:28:00,
2013-04-12 17:33:00,42.6,33.0,29.80,NNW,340,4.3,8.5,68,0.00,,,0.00,WSDL version 423,2013-04-12 22:33:00,
2013-04-12 17:38:00,42.5,31.8,29.80,WSW,254,5.9,11.4,65,0.00,,,0.00,WSDL version 423,2013-04-12 22:38:00,
2013-04-12 17:43:00,42.3,31.6,29.80,SSE,154,4.1,11.4,66,0.00,,,0.00,WSDL version 423,2013-04-12 22:43:00,
2013-04-12 17:48:00,42.2,31.6,29.80,NNE,13,6.0,8.5,66,0.00,,,0.00,WSDL version 423,2013-04-12 22:48:00,
2013-04-12 17:53:00,42.0,31.3,29.80,SW,228,6.3,10.5,66,0.00,,,0.00,WSDL version 423,2013-04-12 22:53:00,
2013-04-12 17:58:00,41.7,31.6,29.80,South,188,3.9,10.5,68,0.00,,,0.00,WSDL version 423,2013-04-12 22:58:00,
2013-04-12 18:03:00,41.6,31.9,29.80,SW,236,4.8,8.5,68,0.00,,,0.00,WSDL version 423,2013-04-12 23:03:00,
2013-04-12 18:08:00,41.5,31.6,29.80,SSE,151,5.3,9.6,68,0.00,,,0.00,WSDL version 423,2013-04-12 23:08:00,
2013-04-12 18:13:00,41.5,32.0,29.80,NW,311,4.5,9.6,69,0.00,,,0.00,WSDL version 423,2013-04-12 23:13:00,
2013-04-12 18:18:00,41.4,32.0,29.80,ENE,71,4.1,7.4,70,0.00,,,0.00,WSDL version 423,2013-04-12 23:18:00,
2013-04-12 18:23:00,41.4,32.3,29.80,WNW,288,3.7,8.1,70,0.00,,,0.00,WSDL version 423,2013-04-12 23:23:00,
2013-04-12 18:28:00,41.2,32.2,29.80,NW,318,4.2,8.1,70,0.00,,,0.00,WSDL version 423,2013-04-12 23:28:00,
2013-04-12 18:33:00,41.2,32.4,29.80,WNW,286,2.8,7.4,71,0.00,,,0.00,WSDL version 423,2013-04-12 23:33:00,
2013-04-12 18:38:00,41.2,32.7,29.80,West,274,4.7,6.5,71,0.00,,,0.00,WSDL version 423,2013-04-12 23:38:00,
2013-04-12 18:43:00,41.2,32.5,29.80,NW,323,5.6,10.3,71,0.00,,,0.00,WSDL version 423,2013-04-12 23:43:00,
2013-04-12 18:48:00,41.2,32.6,29.80,West,262,3.4,10.3,72,0.00,,,0.00,WSDL version 423,2013-04-12 23:48:00,
2013-04-12 18:53:00,41.2,32.6,29.80,WNW,290,3.7,6.0,71,0.00,,,0.00,WSDL version 423,2013-04-12 23:53:00,
2013-04-12 18:58:00,41.2,32.8,29.80,South,180,3.2,6.0,72,0.00,,,0.00,WSDL version 423,2013-04-12 23:58:00,
2013-04-12 19:03:00,41.2,32.4,29.80,East,94,4.0,7.8,70,0.00,,,0.00,WSDL version 423,2013-04-13 00:03:00,
2013-04-12 19:08:00,41.2,31.7,29.80,NNW,344,4.5,10.1,68,0.00,,,0.00,WSDL version 423,2013-04-13 00:08:00,
2013-04-12 19:13:00,41.2,31.6,29.80,WNW,289,3.9,10.1,69,0.00,,,0.00,WSDL version 423,2013-04-13 00:13:00,
2013-04-12 19:18:00,41.0,31.5,29.80,NW,315,4.3,8.5,69,0.00,,,0.00,WSDL version 423,2013-04-13 00:18:00,
2013-04-12 19:23:00,41.0,31.8,29.80,West,273,4.5,7.6,70,0.00,,,0.00,WSDL version 423,2013-04-13 00:23:00,
2013-04-12 19:28:00,40.8,31.6,29.80,WNW,289,3.9,11.0,70,0.00,,,0.00,WSDL version 423,2013-04-13 00:28:00,
2013-04-12 19:33:00,40.8,31.5,29.80,SSW,194,5.4,11.0,69,0.00,,,0.00,WSDL version 423,2013-04-13 00:33:00,
2013-04-12 19:38:00,40.7,31.3,29.80,NW,323,5.1,8.7,69,0.00,,,0.00,WSDL version 423,2013-04-13 00:38:00,
2013-04-12 19:43:00,40.6,31.6,29.80,NW,323,4.1,8.5,70,0.00,,,0.00,WSDL version 423,2013-04-13 00:43:00,
2013-04-12 19:48:00,40.6,31.6,29.80,West,270,2.2,8.5,70,0.00,,,0.00,WSDL version 423,2013-04-13 00:48:00,
2013-04-12 19:53:00,40.5,31.6,29.80,SW,216,4.2,7.6,71,0.00,,,0.00,WSDL version 423,2013-04-13 00:53:00,
2013-04-12 19:58:00,40.5,31.8,29.80,WSW,254,3.2,7.6,71,0.00,,,0.00,WSDL version 423,2013-04-13 00:58:00,
2013-04-12 20:03:00,40.3,32.0,29.80,North,357,2.0,6.0,72,0.00,,,0.00,WSDL version 423,2013-04-13 01:03:00,
2013-04-12 20:08:00,40.3,32.1,29.80,SSW,209,3.3,5.8,73,0.00,,,0.00,WSDL version 423,2013-04-13 01:08:00,
2013-04-12 20:13:00,40.3,32.3,29.80,SSW,200,3.1,6.0,73,0.00,,,0.00,WSDL version 423,2013-04-13 01:13:00,
2013-04-12 20:18:00,40.3,32.3,29.80,SW,225,3.7,6.0,73,0.00,,,0.00,WSDL version 423,2013-04-13 01:18:00,
2013-04-12 20:24:00,40.1,32.3,29.80,SSW,208,3.3,5.6,74,0.00,,,0.00,WSDL version 423,2013-04-13 01:24:00,
2013-04-12 20:29:00,40.1,32.5,29.80,SW,217,3.5,5.6,74,0.00,,,0.00,WSDL version 423,2013-04-13 01:29:00,
2013-04-12 20:34:00,40.1,32.8,29.80,SW,231,3.0,5.8,75,0.00,,,0.00,WSDL version 423,2013-04-13 01:34:00,
2013-04-12 20:40:00,40.0,32.7,29.80,SSW,203,2.8,5.8,75,0.00,,,0.00,WSDL version 423,2013-04-13 01:40:00,
2013-04-12 20:47:00,39.9,32.9,29.83,SW,222,3.4,5.6,76,0.00,,,0.00,WSDL version 423,2013-04-13 01:47:00,
2013-04-12 20:52:00,39.9,33.0,29.83,SW,215,3.7,6.0,77,0.00,,,0.00,WSDL version 423,2013-04-13 01:52:00,
2013-04-12 20:57:00,39.9,33.3,29.83,SSW,199,4.5,7.2,77,0.00,,,0.00,WSDL version 423,2013-04-13 01:57:00,
2013-04-12 21:02:00,40.0,33.4,29.83,SSW,199,3.9,7.4,77,0.00,,,0.00,WSDL version 423,2013-04-13 02:02:00,
2013-04-12 21:07:00,40.1,33.5,29.83,SW,222,5.1,9.8,77,0.00,,,0.00,WSDL version 423,2013-04-13 02:07:00,
2013-04-12 21:12:00,40.1,33.4,29.83,SW,236,5.0,9.8,76,0.00,,,0.00,WSDL version 423,2013-04-13 02:12:00,
2013-04-12 21:17:00,40.3,33.3,29.83,SSW,206,4.3,9.2,76,0.00,,,0.00,WSDL version 423,2013-04-13 02:17:00,
2013-04-12 21:22:00,40.3,33.3,29.83,SW,219,5.1,8.5,76,0.00,,,0.00,WSDL version 423,2013-04-13 02:22:00,
2013-04-12 21:27:00,40.3,33.2,29.83,WSW,254,4.0,9.6,75,0.00,,,0.00,WSDL version 423,2013-04-13 02:27:00,
2013-04-12 21:33:00,40.3,33.0,29.83,WSW,242,3.5,9.6,75,0.00,,,0.00,WSDL version 423,2013-04-13 02:33:00,
2013-04-12 21:38:00,40.3,33.0,29.83,North,360,4.0,8.1,75,0.00,,,0.00,WSDL version 423,2013-04-13 02:38:00,
2013-04-12 21:43:00,40.3,33.0,29.83,WNW,285,4.3,7.2,75,0.00,,,0.00,WSDL version 423,2013-04-13 02:43:00,
2013-04-12 21:48:00,40.2,32.9,29.83,WSW,238,3.4,5.4,75,0.00,,,0.00,WSDL version 423,2013-04-13 02:48:00,
2013-04-12 21:53:00,40.1,32.8,29.83,South,188,3.6,5.4,75,0.00,,,0.00,WSDL version 423,2013-04-13 02:53:00,
2013-04-12 21:58:00,40.1,32.8,29.83,SSW,203,3.6,5.8,75,0.00,,,0.00,WSDL version 423,2013-04-13 02:58:00,
2013-04-12 22:03:00,40.1,33.1,29.83,SSW,210,3.0,5.8,76,0.00,,,0.00,WSDL version 423,2013-04-13 03:03:00,
2013-04-12 22:08:00,40.0,33.0,29.83,NE,55,3.5,6.0,75,0.00,,,0.00,WSDL version 423,2013-04-13 03:08:00,
2013-04-12 22:13:00,39.9,32.8,29.83,SW,236,3.8,6.3,76,0.00,,,0.00,WSDL version 423,2013-04-13 03:13:00,
2013-04-12 22:18:00,39.9,33.0,29.83,SW,218,3.3,6.3,76,0.00,,,0.00,WSDL version 423,2013-04-13 03:18:00,
2013-04-12 22:23:00,39.9,32.9,29.83,WNW,293,4.4,6.3,75,0.00,,,0.00,WSDL version 423,2013-04-13 03:23:00,
2013-04-12 22:29:00,39.9,32.4,29.83,NW,311,4.6,7.6,75,0.00,,,0.00,WSDL version 423,2013-04-13 03:29:00,
2013-04-12 22:34:00,39.8,32.2,29.83,WNW,298,4.6,7.6,74,0.00,,,0.00,WSDL version 423,2013-04-13 03:34:00,
2013-04-12 22:39:00,39.7,32.1,29.83,NNE,23,4.3,7.6,74,0.00,,,0.00,WSDL version 423,2013-04-13 03:39:00,
2013-04-12 22:44:00,39.7,32.1,29.85,NNW,347,3.6,8.7,74,0.00,,,0.00,WSDL version 423,2013-04-13 03:44:00,
2013-04-12 22:49:00,39.6,32.0,29.85,West,262,4.1,8.7,74,0.00,,,0.00,WSDL version 423,2013-04-13 03:49:00,
2013-04-12 22:54:00,39.5,31.9,29.85,WNW,297,4.0,7.2,74,0.00,,,0.00,WSDL version 423,2013-04-13 03:54:00,
2013-04-12 23:00:00,39.4,31.8,29.85,NNW,334,3.4,7.4,74,0.00,,,0.00,WSDL version 423,2013-04-13 04:00:00,
2013-04-12 23:01:00,39.4,31.8,29.85,NW,309,3.7,7.4,74,0.00,,,0.00,WSDL version 423,2013-04-13 04:01:00,
2013-04-12 23:03:00,39.4,31.8,29.85,West,270,3.8,7.8,74,0.00,,,0.00,WSDL version 423,2013-04-13 04:03:00,
2013-04-12 23:07:00,39.3,31.8,29.85,NW,315,3.3,7.8,74,0.00,,,0.00,WSDL version 423,2013-04-13 04:07:00,
2013-04-12 23:12:00,39.2,31.7,29.85,NW,315,2.5,6.5,75,0.00,,,0.00,WSDL version 423,2013-04-13 04:12:00,
2013-04-12 23:17:00,39.2,32.0,29.85,NNW,343,2.4,4.7,75,0.00,,,0.00,WSDL version 423,2013-04-13 04:17:00,
2013-04-12 23:22:00,39.1,32.1,29.85,NNW,338,1.8,4.9,76,0.00,,,0.00,WSDL version 423,2013-04-13 04:22:00,
2013-04-12 23:27:00,39.0,32.1,29.85,WNW,289,3.5,6.0,76,0.00,,,0.00,WSDL version 423,2013-04-13 04:27:00,
2013-04-12 23:32:00,39.0,32.1,29.85,SSW,206,3.8,6.0,76,0.00,,,0.00,WSDL version 423,2013-04-13 04:32:00,
2013-04-12 23:37:00,39.0,32.1,29.85,South,183,3.0,5.8,76,0.00,,,0.00,WSDL version 423,2013-04-13 04:37:00,
2013-04-12 23:42:00,39.0,32.1,29.85,SW,235,3.9,6.0,76,0.00,,,0.00,WSDL version 423,2013-04-13 04:42:00,
2013-04-12 23:47:00,38.9,32.0,29.85,SW,228,2.5,6.0,76,0.00,,,0.00,WSDL version 423,2013-04-13 04:47:00,
2013-04-12 23:52:00,38.8,31.8,29.85,WNW,296,4.3,7.8,75,0.00,,,0.00,WSDL version 423,2013-04-13 04:52:00,
2013-04-12 23:57:00,38.8,31.6,29.85,West,280,3.9,7.8,75,0.00,,,0.00,WSDL version 423,2013-04-13 04:57:00,